Tulsa Jones, OK

6:56 PM CDT on August 20, 2017 (GMT -0500)
Jones Jr.

Weather History for KRVS - February, 2013

Change the Weather History Date:

Wednesday, February 27, 2013

  Actual Average (KTUL) Record (KTUL)
Temperature  
Mean Temperature 37 °F -  
Max Temperature 46 °F 58 °F 81 °F (1976)
Min Temperature 28 °F 35 °F 13 °F (1962)
Degree Days  
Heating Degree Days 28    
Moisture  
Dew Point 26 °F    
Average Humidity 64    
Maximum Humidity 89    
Minimum Humidity 41    
Precipitation  
Precipitation 0.00 in - - ()
Sea Level Pressure  
Sea Level Pressure 30.08 in    
Wind  
Wind Speed 5 mph (WNW)    
Max Wind Speed 14 mph    
Max Gust Speed 25 mph    
Visibility 10 miles    
Events      
Averages and records for this station are not official NWS values.
T = Trace of Precipitation, MM = Missing Value Source: NWS Daily Summary

Daily Weather History Graph

Daily Weather History Graph

Search for Another Location

Airport or City:

Trip Planner

Search our weather history database for the weather conditions in past years. The results will help you decide how hot, cold, wet, or windy it might be!

Date:

Astronomy

Feb. 27, 2013 Rise Set
Actual Time 6:56 AM CST 6:17 PM CST
Civil Twilight 6:30 AM CST 6:43 PM CST
Nautical Twilight 6:00 AM CST 7:12 PM CST
Astronomical Twilight 5:31 AM CST 7:42 PM CST
Moon 8:33 PM CST (2/27) 7:37 AM CST (2/27)
Length of Visible Light 12h 12m
Length of Day
11h 20m
Waning Gibbous, 96% of the Moon is Illuminated
Feb 27
Waning Gibbous
Mar 4
Last Quarter
Mar 11
New
Mar 19
First Quarter
Mar 27
Full

Hourly Weather History & Observations

Time (CST) Temp. Windchill Dew Point Humidity Pressure Visibility Wind Dir Wind Speed Gust Speed Precip Events Conditions
12:53 AM 28.9 °F - 26.1 °F 89% 29.96 in 6.0 mi Calm Calm - N/A   Clear
1:53 AM 32.0 °F 27.5 °F 26.1 °F 79% 29.97 in 10.0 mi WNW 4.6 mph - N/A   Partly Cloudy
2:53 AM 32.0 °F 27.5 °F 26.1 °F 79% 29.99 in 10.0 mi Variable 4.6 mph - N/A   Scattered Clouds
3:53 AM 33.1 °F 27.7 °F 27.0 °F 78% 29.99 in 10.0 mi WNW 5.8 mph - N/A   Overcast
4:53 AM 33.1 °F 30.0 °F 27.0 °F 78% 29.99 in 9.0 mi West 3.5 mph - N/A   Overcast
5:53 AM 32.0 °F 28.7 °F 27.0 °F 82% 30.01 in 9.0 mi Variable 3.5 mph - N/A   Scattered Clouds
6:53 AM 30.9 °F 27.5 °F 26.1 °F 82% 30.03 in 6.0 mi WNW 3.5 mph - N/A   Haze
7:53 AM 32.0 °F 28.7 °F 27.0 °F 82% 30.05 in 7.0 mi Variable 3.5 mph - N/A   Partly Cloudy
9:53 AM 37.0 °F 32.4 °F 28.0 °F 70% 30.09 in 10.0 mi Variable 5.8 mph - N/A   Overcast
10:53 AM 41.0 °F 38.0 °F 28.9 °F 62% 30.09 in 10.0 mi Variable 4.6 mph 17.3 mph N/A   Partly Cloudy
11:36 AM 42.8 °F 37.5 °F 28.4 °F 57% 30.07 in 10.0 mi NW 9.2 mph 17.3 mph N/A   Mostly Cloudy
11:53 AM 43.0 °F 37.7 °F 28.0 °F 56% 30.09 in 10.0 mi WNW 9.2 mph 21.9 mph N/A   Mostly Cloudy
12:18 PM 44.6 °F 40.7 °F 28.4 °F 53% 30.06 in 10.0 mi Variable 6.9 mph 18.4 mph N/A   Scattered Clouds
12:53 PM 46.0 °F 40.2 °F 27.0 °F 47% 30.08 in 10.0 mi WNW 12.7 mph 21.9 mph N/A   Clear
1:53 PM 46.9 °F - 26.1 °F 44% 30.08 in 10.0 mi WNW 13.8 mph 23.0 mph N/A   Scattered Clouds
2:53 PM 46.9 °F - 24.1 °F 41% 30.08 in 10.0 mi WNW 11.5 mph 19.6 mph N/A   Clear
3:53 PM 45.0 °F 39.3 °F 25.0 °F 46% 30.10 in 10.0 mi WNW 11.5 mph 25.3 mph N/A   Clear
4:53 PM 43.0 °F 37.2 °F 24.1 °F 47% 30.13 in 10.0 mi NNW 10.4 mph 21.9 mph N/A   Clear
5:53 PM 41.0 °F 39.0 °F 24.1 °F 51% 30.14 in 10.0 mi NNW 3.5 mph - N/A   Clear
6:53 PM 39.9 °F 37.8 °F 24.1 °F 53% 30.16 in 10.0 mi WNW 3.5 mph - N/A   Clear
8:53 PM 37.0 °F 32.4 °F 24.1 °F 59% 30.19 in 10.0 mi NW 5.8 mph - N/A   Clear
9:53 PM 37.0 °F 32.4 °F 24.1 °F 59% 30.19 in 10.0 mi WNW 5.8 mph - N/A   Clear
10:53 PM 36.0 °F 32.1 °F 25.0 °F 64% 30.19 in 10.0 mi Variable 4.6 mph - N/A   Clear
11:53 PM 35.1 °F 31.0 °F 25.0 °F 67% 30.19 in 10.0 mi Variable 4.6 mph - N/A   Clear